Location: ???????
(55.2903°N, 39.1554°E)
Time: 05:07:28
(UTC+00:00)

Daily predictions for brighter satellites

Satellite Brightness Start Highest point End
(mag) Time Altitude Azimuth Time Altitude Azimuth Time Altitude Azimuth
Cosmos 2221 3.1 00:03:42 32° WSW 00:04:58 40° WNW 00:09:01 10° N
COSMOS 2441 4.3 00:01:00 10° NNE 00:05:56 87° WNW 00:08:43 26° SSW
Cosmos 2333 Rocket 2.5 00:04:54 26° WSW 00:08:00 57° NW 00:13:36 10° NNE
Lacrosse 5 1.9 00:05:37 30° SW 00:08:07 70° SSE 00:13:13 10° ENE
ALOS 2.9 00:04:05 10° NNE 00:08:39 53° E 00:12:16 16° S
NOSS 3-1 (C) 4.2 00:02:10 10° NW 00:08:46 68° NNE 00:17:01 10° ESE
Cosmos 972 Rocket 4.0 00:07:57 27° SW 00:10:55 74° WNW 00:15:59 10° NNE
Cosmos 44 Rocket 3.4 00:10:18 28° SW 00:13:06 79° SE 00:18:16 10° NE
Cosmos 2360 Rocket 2.8 00:09:55 23° WSW 00:13:12 48° NW 00:18:41 10° NNE
Lacrosse 4 Rocket 3.3 00:15:03 11° WNW 00:17:58 21° NNW 00:21:05 10° NNE
Cosmos 2278 Rocket 2.2 00:13:17 10° NW 00:18:55 64° WSW 00:24:31 10° SSE
Cosmos 1743 4.1 00:16:49 10° NW 00:19:41 21° W 00:19:41 21° W
NOSS 3-4 (A) 3.3 00:16:26 24° SW 00:19:58 85° NW 00:26:21 10° NE
NOSS 3-4 (C) 3.3 00:16:29 24° SW 00:20:01 85° NW 00:26:25 10° NE
Sich 1 2.8 00:16:29 10° NNW 00:20:44 79° W 00:24:33 13° S
Cosmos 1733 3.1 00:18:20 10° N 00:21:58 79° ENE 00:25:34 10° SSE
IDEFIX/ARIANE 42P 3.1 00:17:53 10° N 00:22:49 45° WNW 00:25:43 23° SW
Cosmos 2322 Rocket 3.2 00:19:32 17° W 00:23:16 37° NW 00:28:29 10° NNE
NOSS 2-3 (C) 4.4 00:19:06 10° NW 00:24:25 59° SW 00:31:38 10° SSE
EO 1 Delta rocket 4.4 00:20:00 10° NNE 00:24:45 56° E 00:29:17 10° S
BlueWalker 3 2.4 00:23:38 29° WSW 00:24:50 37° SSW 00:28:24 10° SE
SAR-Lupe-1 4.0 00:21:25 10° NNE 00:25:03 83° WNW 00:26:59 26° SSW
MSX 4.2 00:21:43 10° N 00:27:20 53° WNW 00:31:06 21° SW
Cosmos 1743 Rocket 3.4 00:24:01 10° NNW 00:28:21 70° W 00:32:27 11° S
NOSS 2-3 (D) 4.4 00:24:17 10° NW 00:29:33 58° SW 00:36:42 10° SSE
Cosmos 2219 Rocket 2.4 00:27:21 22° SW 00:30:57 60° NW 00:36:31 10° NNE
Cosmos 1538 Rocket 4.1 00:26:59 19° SSW 00:30:57 79° ESE 00:36:19 10° NNE
ATLAS 3B R/B 3.6 00:23:47 10° NW 00:31:24 60° NNE 00:39:08 10° ESE
Cosmos 192 4.4 00:27:41 10° NW 00:32:28 54° WSW 00:37:13 10° S
Gbstr 26 Del rocket 3.8 00:31:34 22° SSW 00:33:22 33° SSE 00:36:49 10° E
Cosmos 1536 3.3 00:30:17 10° NNW 00:33:56 39° W 00:35:46 23° SW
Meteor 2-10 4.2 00:28:39 10° NNW 00:34:12 73° W 00:39:52 10° S
Cosmos 1420 Rocket 4.1 00:30:03 10° NNW 00:35:20 84° ENE 00:40:37 10° SSE
Cosmos 1633 Rocket 4.0 00:31:20 10° N 00:35:35 50° ENE 00:39:49 10° SSE
SAR-Lupe-4 3.6 00:32:39 10° N 00:36:11 60° WNW 00:38:09 24° SW
SWAS 4.3 00:32:21 10° NW 00:36:35 83° SW 00:40:47 10° SSE
COBE Rocket 4.4 00:32:29 10° N 00:36:56 41° WNW 00:39:40 20° SW
NOSS 7 (E) 4.4 00:34:18 10° WNW 00:37:16 47° SW 00:40:34 10° SSE
NOSS 2-2 (E) 4.3 00:33:19 10° WNW 00:37:21 38° SW 00:42:48 10° SSE
Cosmos 1340 Rocket 4.4 00:34:07 10° SSE 00:37:34 32° E 00:41:04 10° NNE
USA 290 4.4 00:34:52 10° N 00:37:38 28° NE 00:40:22 10° ESE
Cosmos 2056 Rocket 3.7 00:33:24 10° NNW 00:38:48 79° ENE 00:44:14 10° SSE
Cosmos 1805 3.4 00:36:02 10° N 00:39:45 71° ENE 00:43:28 10° SSE
GP-B 3.2 00:35:32 10° N 00:39:53 58° W 00:43:17 16° SSW
SL-16 R/B 3.7 00:35:21 10° W 00:40:06 27° NNW 00:44:53 10° NNE
Meteor 1-28 Rocket 4.4 00:45:43 20° WSW 00:46:33 22° W 00:49:28 10° NW
Cosmos 1092 Rocket 4.0 00:42:28 10° S 00:48:37 85° E 00:54:48 10° NNE
ADEOS II 2.4 00:44:08 10° N 00:49:12 51° WNW 00:53:12 16° SW
CZ-2C R/B 3.4 00:45:24 10° NNE 00:50:26 50° E 00:55:27 10° S
FENGYUN 3A 3.9 00:45:53 10° N 00:51:13 56° WNW 00:55:38 15° SW
Cosmos 1624 Rocket 4.0 00:46:04 10° NNW 00:51:21 89° WSW 00:56:34 10° SSE
NOSS 2-2 (D) 4.2 00:47:43 10° WNW 00:51:41 39° SW 00:57:01 10° SSE
Cosmos 1726 3.2 00:51:43 10° NW 00:54:07 20° W 00:54:44 19° WSW
Meteor 1-19 Rocket 4.4 00:48:22 10° SSW 00:54:17 86° WNW 01:00:23 10° NNE
Cosmos 2026 Rocket 4.0 00:50:19 10° S 00:56:37 87° W 01:03:03 10° N
SL-16 R/B 3.2 00:51:35 11° SSW 00:56:50 34° W 01:02:26 10° NNW
Okean 1 3.4 00:54:37 16° SSW 00:57:27 53° WNW 01:01:13 10° N
CZ-2D R/B 3.1 00:55:37 10° N 01:00:20 33° WNW 01:04:21 14° WSW
ATLAS 5 CENTAUR R/B 1.9 00:56:51 10° NW 01:01:26 88° NE 01:07:08 10° SE
Cosmos 1461 3.8 00:59:29 10° WNW 01:02:34 23° WSW 01:05:36 10° S
Envisat 3.1 01:02:10 10° NNE 01:07:17 81° ESE 01:12:22 10° SSW
Cosmos 923 Rocket 4.2 01:02:15 10° SSW 01:07:28 73° ESE 01:12:45 10° NNE
Cosmos 1151 Rocket 3.0 01:04:19 10° SSW 01:08:37 73° WNW 01:12:58 10° N
RESURS DK-1 2.3 01:06:15 14° SW 01:09:46 82° NW 01:13:52 10° NE
Intercosmos 25 Rocket 3.2 01:15:24 10° NNW 01:18:35 54° W 01:22:34 10° S
Cosmos 1766 3.6 01:15:36 10° N 01:19:18 66° ENE 01:22:58 10° SSE
Cosmos 1943 Rocket 2.6 01:14:17 10° NW 01:19:35 42° WSW 01:24:51 10° S
Cosmos 921 Rocket 4.1 01:15:34 10° S 01:19:37 45° ESE 01:23:48 10° NNE
ATLAS 2AS CENTAUR R/B 4.0 01:13:15 10° S 01:19:58 39° ESE 01:26:26 10° NE
Cosmos 1371 Rocket 4.1 01:14:57 10° NNW 01:20:04 56° WSW 01:25:12 10° S
Meteor 1-27 Rocket 4.0 01:14:58 10° SSW 01:20:39 56° WNW 01:26:15 10° N
Cosmos 1470 Rocket 3.6 01:17:02 10° N 01:21:26 85° E 01:25:51 10° SSE
Cosmos 1975 2.9 01:19:04 10° NNW 01:22:49 50° W 01:26:33 10° S
Thor Agena Rocket 3.6 01:18:08 10° NNE 01:23:13 79° ESE 01:28:16 10° SSW
NOAA 11 4.2 01:19:38 10° NNE 01:25:07 89° WNW 01:30:35 10° SSW
Meteor 2-4 Rocket 3.8 01:21:07 10° S 01:26:33 85° E 01:32:08 10° NNE
H-2A R/B 3.6 01:22:08 10° NNE 01:26:44 36° E 01:31:22 10° SSE
COSMOS 2428 3.2 01:22:41 10° WSW 01:28:09 49° NW 01:33:41 10° NNE
Cosmos 1340 2.7 01:25:00 10° NNW 01:28:18 45° W 01:31:36 10° S
Cosmos 2297 3.8 01:22:41 10° NW 01:28:29 88° NE 01:34:15 10° SSE
CZ-4 R/B 4.0 01:23:47 10° N 01:28:32 61° WNW 01:33:10 10° SSW
CZ-2C R/B 4.2 01:30:22 10° N 01:34:31 27° WNW 01:38:48 10° WSW
Cosmos 1484 Rocket 4.2 01:31:09 10° NNE 01:34:33 36° E 01:37:53 10° SSE
Cosmos 1666 Rocket 4.0 01:30:40 10° NNW 01:34:54 43° W 01:39:06 10° SSW
S3M 4.1 01:29:28 10° NNW 01:35:39 89° E 01:41:52 10° S
Cosmos 2237 Rocket 2.3 01:30:14 10° SW 01:35:55 81° NW 01:41:40 10° NNE
NOSS 3-1 (A) 4.0 01:29:13 10° NW 01:36:04 90° NE 01:44:34 10° SE
Cosmos 1980 3.8 01:31:28 10° SW 01:37:09 76° NW 01:42:51 10° NNE
Cosmos 2369 Rocket 2.4 01:32:07 10° NNW 01:37:47 81° NE 01:43:24 10° SE
Cosmos 1626 2.0 01:36:15 10° S 01:39:32 75° E 01:42:51 10° NNE
BREEZE-M DEB (TANK) 1.9 01:38:11 10° WSW 01:40:21 35° SSE 01:42:18 10° E
Resurs 1-4 Rocket 3.8 01:37:25 10° N 01:41:01 19° NW 01:44:36 10° W
USA 215 3.5 01:37:23 10° E 01:43:57 79° N 01:50:30 10° W
USA 229 DEB 4.5 01:37:01 10° NW 01:44:03 64° NNE 01:51:49 10° ESE
USA 229 4.5 01:37:09 10° NW 01:44:10 64° NNE 01:51:57 10° ESE
ALOS 3.4 01:41:43 10° N 01:45:39 28° WNW 01:49:35 10° WSW
Cosmos 2112 Rocket 4.1 01:41:40 10° SSW 01:47:01 88° WNW 01:52:25 10° NNE
